TimeEET,TemperatureF,Dew PointF,Humidity,Sea Level PressureIn,VisibilityMPH,Wind Direction,Wind SpeedMPH,Gust SpeedMPH,PrecipitationIn,Events,Conditions,WindDirDegrees,DateUTC
12:00 AM,69.8,59.0,68,30.09,-9999.0,North,6.9,-,N/A,,Clear,360,2013-10-10 22:00:00
1:00 AM,69.8,62.6,78,30.09,6.2,North,9.2,-,N/A,,Partly Cloudy,360,2013-10-10 23:00:00
2:00 AM,69,65,85,30.11,6,North,5.8,,,,,10,2013-10-11 00:00:00
2:00 AM,69.8,66.2,88,30.09,-9999.0,North,5.8,-,N/A,,Clear,10,2013-10-11 00:00:00
3:00 AM,69.8,62.6,78,30.09,-9999.0,North,5.8,-,N/A,,Clear,360,2013-10-11 01:00:00
4:00 AM,68.0,62.6,83,30.09,-9999.0,North,3.5,-,N/A,,Clear,10,2013-10-11 02:00:00
5:00 AM,68.0,62.6,83,30.09,-9999.0,NNE,3.5,-,N/A,,Clear,30,2013-10-11 03:00:00
6:00 AM,62.6,59.0,88,30.09,-9999.0,NE,2.3,-,N/A,,Clear,40,2013-10-11 04:00:00
7:00 AM,62.6,59.0,88,30.09,-9999.0,Calm,Calm,-,N/A,,Clear,0,2013-10-11 05:00:00
8:00 AM,71.6,62.6,73,30.12,-9999.0,Calm,Calm,-,N/A,,Clear,0,2013-10-11 06:00:00
9:00 AM,75.2,66.2,73,30.12,-9999.0,NE,4.6,-,N/A,,Clear,50,2013-10-11 07:00:00
10:00 AM,78.8,66.2,65,30.12,-9999.0,NNE,5.8,-,N/A,,Clear,20,2013-10-11 08:00:00
11:00 AM,78.8,64.4,61,30.15,-9999.0,North,6.9,-,N/A,,Clear,350,2013-10-11 09:00:00
12:00 PM,78.8,64.4,61,30.12,-9999.0,North,6.9,-,N/A,,Clear,360,2013-10-11 10:00:00
1:00 PM,80.6,64.4,58,30.12,-9999.0,North,9.2,-,N/A,,Clear,350,2013-10-11 11:00:00
2:00 PM,80,60,41,30.12,6,North,9.2,,,,,0,2013-10-11 12:00:00
2:00 PM,80.6,60.8,51,30.12,-9999.0,North,9.2,-,N/A,,Clear,360,2013-10-11 12:00:00
3:00 PM,80.6,60.8,51,30.12,-9999.0,North,11.5,-,N/A,,Clear,350,2013-10-11 13:00:00
4:00 PM,78.8,60.8,54,30.12,-9999.0,NNW,11.5,-,N/A,,Clear,330,2013-10-11 14:00:00
5:00 PM,77.0,60.8,57,30.12,-9999.0,North,10.4,-,N/A,,Clear,360,2013-10-11 15:00:00
6:00 PM,75.2,62.6,65,30.12,-9999.0,North,13.8,-,N/A,,Clear,350,2013-10-11 16:00:00
7:00 PM,75.2,66.2,73,30.12,-9999.0,North,9.2,-,N/A,,Clear,360,2013-10-11 17:00:00
8:00 PM,76,67,65,30.15,6,North,9.2,,,,,350,2013-10-11 18:00:00
8:00 PM,75.2,66.2,73,30.12,-9999.0,North,9.2,-,N/A,,Clear,350,2013-10-11 18:00:00
9:00 PM,75.2,68.0,78,30.12,-9999.0,North,13.8,-,N/A,,Clear,360,2013-10-11 19:00:00
10:00 PM,75.2,66.2,73,30.12,-9999.0,North,10.4,-,N/A,,Clear,360,2013-10-11 20:00:00
11:00 PM,75.2,66.2,73,30.12,-9999.0,North,9.2,-,N/A,,Clear,360,2013-10-11 21:00:00